Skip Page Navigation
NASA JPL Caltech
NASA Logo - Jet Propulsion Laboratory + View the NASA Portal
+ Center for Near-Earth Object Studies
JPL Home Earth Solar System Stars & Galaxies Technology
JPL Solar System Dynamics
BODIES ORBITS EPHEMERIDES TOOLS PHYSICAL DATA DISCOVERY FAQ SITE MAP
JPL Small-Body Database Browser
Search: [ help ]  
(2014 KP76)
Classification: Amor [NEO]          SPK-ID: 3672901
Ephemeris | Orbit Diagram | Orbital Elements | Mission Design | Physical Parameters | Close-Approach Data ]

[ hide orbit diagram ]

For accurate long-term ephemerides, please instead use our Horizons system.This orbit viewer was implemented using two-body methods, and hence should not be used for determining accurate long-term trajectories (over several years or decades) or planetary encounter circumstances.


[ revert to old Java-based viewer ]

Orbital Elements at Epoch 2459000.5 (2020-May-31.0) TDB
Reference: JPL 11 (heliocentric ecliptic J2000)
 Element Value Uncertainty (1-sigma)   Units 
e .4797867205209339 6.9507e-05  
a 2.168774459639414 0.00031601 au
q 1.128225274099459 1.3656e-05 au
i 8.63497728201445 0.00079566 deg
node 240.4416341164085 0.00066428 deg
peri 10.95698884119562 0.00029733 deg
M 313.6047392179923 0.14688 deg
tp 2459150.845741570494
(2020-Oct-28.34574157)
0.50883 TDB
period 1166.594735175355
3.19
0.25497
0.0006981
d
yr
n .3085904548899641 6.7446e-05 deg/d
Q 3.209323645179369 0.00046763 au
  Orbit Determination Parameters
   # obs. used (total)      32  
   data-arc span      53 days  
   first obs. used      2014-05-25  
   last obs. used      2014-07-17  
   planetary ephem.      DE431  
   SB-pert. ephem.      SB431-N16  
   condition code      6  
   norm. resid. RMS      .53242  
   source      ORB  
   producer      Otto Matic  
   solution date      2017-Apr-06 08:40:17  

Additional Information
 Earth MOID = .117164 au 
 Jupiter MOID = 1.84918 au 
 T_jup = 3.519 
[ show covariance matrix ]

Ephemeris | Orbit Diagram | Orbital Elements | Mission Design | Physical Parameters | Close-Approach Data ]

Physical Parameter Table
Parameter Symbol Value Units Sigma Reference Notes
absolute magnitude H 23.2   n/a E2014M09  

[ show close-approach data ]
Ephemeris | Orbit Diagram | Orbital Elements | Mission Design | Physical Parameters | Close-Approach Data ]
ABOUT SSD CREDITS/AWARDS PRIVACY/COPYRIGHT GLOSSARY LINKS
FirstGov 2020-Oct-30 16:49 UT
(server date/time)  
NASA Home Page
Site Manager:   Ryan S. Park
Webmaster  Alan B. Chamberlin